Location: Kikino
(54.4440°N, 112.0940°W)
Time: 20:20:39
(UTC+00:00)

A-11 Canister half - Pass Details

Date: 28 May 2024
Orbit: 1524 x 1684 km, 47.3° (Epoch: 18 May)

Event Time Altitude Azimuth Distance (km) Brightness Sun altitude
Rises 07:03:08 0° 270° (W) 4,712 11.6 -13.8°
Reaches altitude 10° 07:06:14 10° 266° (W) 3,745 11.0 -13.9°
Maximum altitude 07:15:19 53° 193° (SSW) 1,892 9.1 -14.0°
Drops below altitude 10° 07:24:43 10° 121° (ESE) 3,862 10.8 -14.0°
Sets 07:27:58 0° 117° (ESE) 4,868 11.4 -14.0°
